Theta_e
315 315 313 313 316 317 318 318 317 316 317 317 316 316 317 317 318 321 323 325 326 325 324 323 322 323 324 323 319 319 315 310 311 312 313 312 312 313 313 311 311 311 312 313 314 315 313 310 311 313 315 316 317 317 317 319 319 320 331 330 321 322 323 320 318 315 318 320 312 310 314 316 316 313 313 314 314 315 315 316 317 317 318 317 317 318 316 315
315 315 313 314 316 316 317 316 315 316 317 317 317 317 317 318 319 321 323 325 325 323 322 321 322 322 319 315 313 315 315 313 313 313 314 313 313 313 312 311 310 311 312 314 314 314 312 310 312 314 316 316 316 316 316 318 317 321 328 325 326 329 320 314 314 311 313 315 312 311 313 314 315 313 314 315 314 314 315 316 316 316 317 317 318 318 317 314
314 314 313 315 316 316 316 315 315 316 316 317 317 317 317 318 319 321 323 323 323 321 322 322 322 320 314 310 311 314 317 316 314 314 313 313 313 312 310 310 310 311 313 314 314 313 311 310 313 315 316 316 315 316 316 317 316 317 322 326 329 324 314 311 312 311 313 313 311 311 312 313 314 313 314 314 314 313 315 316 315 316 316 317 317 318 318 315
313 314 313 315 316 316 316 316 316 316 316 317 317 317 316 318 318 319 321 321 322 321 322 323 322 317 310 310 312 314 316 314 313 313 313 313 313 311 310 310 310 313 314 313 313 311 311 311 313 315 316 315 315 316 315 316 316 315 321 328 322 312 313 313 311 312 312 312 312 312 312 313 313 313 314 314 315 315 315 315 315 315 315 316 316 317 318 316
313 314 315 315 314 315 315 315 315 316 317 317 317 317 317 317 318 319 320 321 322 322 322 322 320 313 309 310 310 311 313 312 311 312 313 313 312 310 310 310 311 313 313 312 311 310 311 312 314 315 315 314 315 316 314 313 316 316 315 317 313 309 314 313 310 312 312 313 312 311 313 314 313 313 313 314 317 318 315 315 316 315 315 316 316 316 318 316
313 314 316 314 313 314 315 314 313 315 316 317 317 317 317 318 319 320 321 322 322 321 321 320 316 311 310 310 309 309 310 312 312 311 312 311 311 310 310 310 311 314 312 311 310 310 312 313 315 315 313 313 314 315 315 313 315 319 314 309 311 311 313 312 311 313 312 313 312 311 313 313 312 313 313 313 315 316 315 315 315 315 315 315 315 316 316 316
313 314 316 314 312 312 313 313 313 314 315 316 316 315 317 319 320 321 321 321 321 319 318 316 312 310 310 309 308 308 309 312 311 311 312 310 310 310 310 311 312 313 312 310 310 311 312 313 315 314 313 313 313 312 314 313 313 320 317 309 311 311 311 312 312 312 311 313 313 312 313 312 313 313 312 313 315 315 315 315 314 315 315 315 315 315 315 316
312 313 315 314 312 312 312 313 312 312 312 312 312 312 315 317 319 319 319 318 317 315 314 312 310 310 310 309 308 308 308 310 310 311 312 310 310 310 311 313 313 313 311 310 310 311 312 313 314 313 313 313 313 312 312 313 313 318 317 310 310 311 310 311 311 312 311 311 312 312 312 311 312 312 311 313 315 315 315 315 314 314 315 315 315 315 315 315
312 313 314 313 311 311 312 313 313 313 312 310 308 309 310 312 313 314 313 313 312 311 310 310 310 310 310 309 308 308 309 310 310 311 312 311 309 310 312 313 313 312 310 310 310 311 313 313 314 314 312 311 312 311 311 314 314 314 313 310 311 310 310 311 311 311 311 311 312 312 312 311 311 311 312 313 314 314 314 314 314 314 314 315 315 315 315 315
312 312 313 312 310 310 311 313 313 312 312 311 308 307 308 308 309 309 309 309 309 309 310 310 310 310 309 309 308 308 309 310 309 310 312 311 309 312 314 313 312 311 310 310 310 312 313 313 314 313 312 312 311 311 311 313 314 312 311 311 311 311 311 311 311 311 311 311 312 313 312 311 311 311 314 314 314 314 314 314 314 314 314 314 315 315 315 315
312 311 311 310 309 310 311 312 312 311 313 313 308 308 308 308 308 308 308 309 309 309 310 309 310 309 309 309 307 307 310 311 310 310 311 311 312 314 314 312 311 310 310 310 310 312 313 313 313 313 313 312 311 311 310 311 312 312 312 313 310 310 311 311 312 311 312 312 311 313 312 310 311 312 315 313 314 315 314 314 314 314 314 314 315 315 315 315
312 311 311 310 309 309 310 311 310 312 314 312 308 308 308 308 308 308 308 309 309 309 309 309 309 309 309 308 308 308 311 312 311 310 311 312 314 315 313 311 311 311 311 310 310 313 313 313 312 313 313 312 312 312 312 311 311 311 313 315 313 312 313 310 310 311 312 313 311 312 312 313 314 314 315 313 313 314 314 314 314 314 314 313 315 315 315 315
311 312 311 310 309 309 310 310 310 312 313 309 308 308 307 308 308 308 308 308 309 309 309 309 309 309 308 308 309 308 310 313 313 312 312 313 314 314 311 311 312 311 312 311 311 312 313 313 312 313 312 312 312 311 312 310 311 312 311 315 316 315 314 309 309 311 311 312 311 311 313 318 317 311 312 313 313 314 314 314 314 314 314 314 314 315 315 314
311 311 311 310 310 309 309 309 310 311 310 308 308 308 308 308 307 307 308 308 309 309 308 309 309 308 308 309 309 309 310 312 314 314 314 314 314 312 311 312 312 312 312 312 312 312 313 313 312 313 312 312 312 311 315 312 312 314 309 314 318 315 316 311 307 311 312 312 311 311 312 318 317 310 310 312 312 313 314 314 314 314 314 314 314 314 315 315
311 310 310 310 309 308 309 309 309 310 309 308 308 308 308 307 307 307 307 308 308 308 308 308 308 308 308 308 309 309 309 309 312 314 314 314 312 311 312 312 312 312 313 313 313 313 313 313 313 313 311 312 312 312 317 317 318 318 311 316 316 312 317 314 307 308 313 312 310 311 313 316 315 311 311 312 312 312 313 314 314 314 314 314 314 314 314 315
311 310 310 310 309 308 308 308 309 309 308 308 308 308 308 308 308 308 307 308 308 308 308 308 308 308 308 308 309 310 310 309 311 314 314 313 312 312 312 312 312 313 313 313 314 314 314 313 312 312 311 312 313 316 319 319 322 320 316 319 317 313 315 314 309 306 309 312 310 310 313 317 316 311 311 312 312 312 312 313 313 313 314 313 314 314 314 315
312 311 310 310 309 308 307 308 309 308 308 308 308 308 308 308 308 308 308 308 308 307 307 308 308 308 308 308 310 311 311 310 310 313 314 312 311 312 312 312 313 313 313 313 314 314 313 313 312 312 312 311 312 317 317 316 318 317 318 320 316 316 314 314 314 308 306 311 313 312 312 317 316 310 311 312 311 312 312 313 314 314 314 314 314 314 314 315
313 311 310 310 309 308 307 308 308 308 308 308 308 308 307 308 307 307 307 307 307 306 308 309 307 309 309 308 311 312 311 311 311 313 313 311 312 312 312 312 313 314 313 313 313 314 313 311 311 316 315 311 312 316 317 317 317 316 318 317 314 315 313 314 317 311 308 313 314 314 313 316 316 311 311 312 311 312 313 314 314 315 315 314 314 314 314 315
314 312 311 310 309 308 307 307 308 308 308 307 308 307 307 306 306 306 306 306 307 308 309 309 308 311 312 308 310 312 312 311 312 312 312 311 312 312 312 312 313 314 313 313 314 313 313 312 313 316 316 314 314 315 319 321 319 318 318 319 320 321 316 314 316 309 307 314 315 316 316 316 318 314 312 313 312 312 313 314 314 315 316 315 315 315 315 315
315 313 311 310 309 308 307 307 307 307 307 308 308 307 306 306 307 308 307 307 308 308 309 309 308 311 311 308 309 312 312 312 312 312 312 312 312 312 313 313 313 314 313 315 316 312 313 316 316 317 315 315 315 314 316 316 316 317 318 320 321 320 317 313 314 308 305 314 317 317 319 317 317 316 311 311 311 309 311 313 314 315 315 315 315 315 315 316
315 314 312 310 309 308 308 307 307 307 307 308 307 307 307 307 308 309 308 308 309 309 309 309 308 310 310 308 310 312 312 312 312 311 312 312 312 313 313 313 314 314 312 312 314 312 313 317 317 318 314 311 312 313 314 314 315 316 316 318 317 317 318 312 312 310 305 311 316 315 318 317 317 317 311 309 309 309 311 313 314 315 315 315 315 315 315 316
315 315 313 311 309 308 308 307 307 307 307 307 307 307 307 307 309 309 308 308 308 309 310 308 308 310 310 309 311 312 311 312 312 312 312 312 313 313 313 314 315 315 311 310 313 313 314 318 319 313 306 307 310 313 316 316 318 320 316 316 317 316 317 312 311 311 307 311 317 316 317 317 317 316 311 307 308 311 312 312 313 314 314 315 315 315 315 315
315 315 315 312 309 309 308 307 307 306 307 307 307 307 307 308 310 308 308 308 308 309 310 308 308 310 310 311 312 312 311 312 313 313 312 312 313 313 312 313 315 316 313 313 315 316 316 318 315 305 303 310 313 313 316 317 317 320 317 317 317 315 316 315 312 311 309 310 314 316 316 316 316 315 313 307 305 308 310 310 312 312 313 314 314 314 314 314
316 316 316 314 310 309 309 307 307 306 307 307 307 308 307 309 310 308 307 308 308 310 310 308 308 310 311 311 312 312 311 311 312 313 312 313 313 313 312 312 314 315 313 314 315 316 317 311 305 302 307 314 313 312 316 318 315 315 320 325 322 317 318 316 312 312 312 309 310 313 314 321 323 322 321 311 304 306 308 309 311 312 312 313 313 313 314 314
316 316 316 315 311 309 308 307 307 306 307 307 307 307 307 309 310 307 308 309 309 310 310 309 309 310 311 311 312 311 311 311 312 312 312 313 313 312 312 310 312 314 314 314 313 315 314 305 303 307 311 314 314 314 318 321 317 313 319 326 324 321 319 316 314 316 316 312 309 309 314 327 330 327 325 317 312 312 308 306 310 311 311 311 312 313 313 313
316 316 316 314 311 309 308 308 307 306 306 307 307 307 307 309 308 307 310 311 309 308 309 310 310 311 311 312 312 311 311 312 312 313 313 313 313 312 312 310 310 312 312 312 312 313 310 304 306 312 313 314 314 314 315 318 318 314 314 317 319 322 322 320 317 316 318 314 308 308 315 322 324 324 324 318 317 318 312 306 307 310 312 312 312 312 312 313
317 316 315 313 311 309 308 308 307 306 307 307 307 307 307 309 308 307 310 310 310 309 309 309 309 310 312 312 312 311 313 313 312 313 313 313 312 311 313 312 311 311 309 310 313 311 308 307 310 313 315 316 315 314 313 315 319 315 312 313 319 323 323 323 320 318 318 312 310 315 317 315 317 319 318 314 316 319 318 313 309 310 313 313 313 313 313 313
316 315 314 312 310 308 307 307 307 306 307 307 307 307 308 309 308 308 311 309 309 310 308 308 308 310 312 311 311 310 312 313 313 314 313 312 312 311 313 312 313 314 307 308 316 311 308 313 313 313 316 315 315 315 312 316 320 315 309 311 316 319 322 324 324 323 316 310 315 319 313 312 318 321 318 313 314 317 320 318 313 311 313 314 314 313 313 313
314 313 312 310 309 308 307 308 307 306 308 307 307 308 308 308 307 308 311 308 308 309 308 308 309 311 311 310 310 310 310 311 313 314 312 312 312 310 313 310 309 314 308 309 318 313 308 312 310 312 316 314 314 312 310 320 321 310 305 310 313 315 319 320 321 322 316 313 320 318 309 311 317 324 322 313 312 318 319 318 313 310 312 313 314 314 313 313
312 312 311 309 309 309 308 308 307 307 308 307 307 308 307 309 309 308 308 309 311 309 306 307 309 310 310 310 310 310 311 311 311 312 311 311 311 309 311 309 309 316 316 314 318 313 308 308 308 310 312 310 309 307 307 313 312 306 310 315 314 318 321 319 320 318 314 318 322 313 309 310 311 321 325 314 313 317 317 316 313 311 312 313 314 315 315 315
311 312 310 309 310 309 309 309 307 307 308 307 308 309 307 311 314 310 307 310 314 309 306 308 309 310 310 310 312 311 311 311 309 311 312 311 310 309 310 310 312 317 319 317 317 313 310 310 310 308 307 306 308 308 306 305 305 309 321 320 315 320 321 321 323 316 313 323 320 310 308 310 309 318 320 314 316 315 312 314 316 313 313 313 314 315 315 315
310 310 309 309 310 310 309 308 306 307 308 307 308 308 309 311 311 310 308 309 312 310 309 309 308 310 311 311 313 313 314 313 309 311 314 313 311 311 312 315 317 316 315 316 317 315 314 314 310 308 307 307 312 314 309 309 311 314 318 318 318 321 317 321 326 317 315 320 312 306 308 309 310 316 314 314 317 314 308 309 312 311 311 313 314 314 314 314
309 309 309 310 311 310 309 308 307 308 307 307 308 309 313 312 309 310 309 309 310 309 310 311 310 311 312 311 313 313 314 313 311 311 312 313 312 311 312 314 317 318 316 317 318 315 316 316 312 312 311 309 312 315 313 314 315 313 314 317 321 320 314 316 319 312 313 316 309 305 309 311 314 314 313 314 312 309 306 307 309 310 311 313 313 313 314 314
309 310 310 311 310 309 310 308 307 308 308 307 308 309 313 312 310 311 310 309 311 310 311 312 310 310 311 312 313 313 314 312 311 311 311 313 312 312 313 311 312 320 321 317 317 316 317 317 315 314 312 310 312 314 316 317 314 312 314 316 318 323 322 319 319 318 318 317 310 306 310 319 318 311 311 311 306 306 308 308 309 309 311 313 312 313 314 314
310 311 311 310 310 310 310 308 308 309 308 307 308 309 310 309 312 313 309 309 313 312 311 310 310 311 311 312 312 311 314 313 311 312 313 313 312 312 313 310 311 319 320 315 314 315 315 315 314 310 307 310 313 311 312 315 314 312 312 312 314 320 322 315 312 316 315 312 311 310 313 320 316 309 309 306 304 306 307 307 309 310 311 312 312 313 313 314
312 312 312 311 311 312 310 308 309 310 308 308 308 309 309 310 315 315 309 310 313 311 310 310 311 312 311 312 313 310 312 314 312 312 313 313 313 312 312 311 311 314 315 315 316 315 313 312 312 310 308 309 311 308 307 311 314 312 310 313 315 313 317 313 306 305 308 310 313 312 314 316 312 311 315 312 309 309 307 307 308 310 312 312 312 312 311 312
314 315 314 313 314 314 311 308 309 309 308 308 308 309 310 310 313 316 312 310 311 309 310 311 311 312 311 311 314 312 312 314 312 312 313 312 312 312 313 312 310 310 312 314 316 316 316 314 311 313 313 308 306 307 306 305 309 314 316 314 310 307 313 316 311 312 312 313 316 313 312 315 313 313 318 316 312 313 312 309 307 308 312 311 311 311 310 312
315 316 315 314 315 314 310 308 309 309 308 308 309 312 315 314 311 313 311 307 309 311 312 313 311 311 311 311 313 312 312 314 312 312 313 312 312 313 313 312 309 309 308 309 312 315 318 317 310 310 314 310 307 310 310 307 305 312 315 310 309 314 316 313 312 317 315 312 319 318 310 309 310 315 320 315 313 317 316 312 309 309 311 310 311 311 311 311
315 316 315 315 315 313 311 308 309 309 307 308 310 311 316 317 312 310 309 306 311 313 312 313 312 311 310 311 312 311 311 313 312 312 313 312 312 311 310 312 311 308 305 307 312 313 317 320 313 309 311 311 311 313 315 314 307 307 308 306 312 321 320 313 312 316 314 311 317 320 316 314 313 316 320 314 315 322 319 316 313 310 311 311 311 312 312 312
315 315 315 316 316 313 312 311 310 310 309 309 310 309 313 316 313 310 309 309 313 313 313 317 315 311 312 311 311 311 312 312 311 312 313 311 311 310 309 310 312 309 305 306 312 312 314 317 315 311 310 312 316 315 314 315 311 309 310 309 312 314 313 313 312 312 316 317 317 316 317 324 320 313 315 314 316 319 316 314 311 307 310 312 311 314 315 313
314 314 313 314 315 314 313 314 312 311 310 310 312 314 315 315 313 312 310 310 312 311 313 317 316 314 315 312 311 311 312 313 311 312 314 311 310 311 309 309 310 310 307 307 312 316 314 313 315 314 313 314 316 312 310 313 312 310 311 311 313 313 312 314 312 310 311 313 316 315 313 321 322 313 313 313 310 308 305 305 306 306 310 312 313 315 315 314
312 312 313 313 314 314 314 315 313 311 312 312 312 315 315 313 313 313 311 311 313 311 311 315 317 317 317 313 312 312 312 313 312 312 314 313 312 313 310 308 308 308 309 311 313 313 312 316 319 316 315 315 311 306 303 307 311 310 311 312 313 312 314 318 317 313 309 306 309 312 311 319 323 310 307 307 302 302 303 303 305 309 311 313 314 314 314 314
310 310 312 312 312 314 315 314 313 312 314 313 311 313 313 311 312 312 312 313 314 313 315 319 316 313 314 314 314 312 311 312 311 311 315 314 311 311 308 307 307 308 309 312 312 309 310 318 319 315 316 315 311 308 304 306 310 311 313 313 313 313 315 322 323 317 313 309 310 311 311 320 323 305 299 302 302 304 306 305 307 312 313 313 314 314 314 314
309 309 310 311 311 314 315 314 314 313 312 311 313 313 312 311 311 312 315 315 313 316 321 321 313 309 313 315 314 314 313 312 311 311 314 315 311 308 307 307 308 308 309 311 312 310 311 317 316 313 316 316 314 314 312 312 312 313 316 315 314 315 314 315 315 312 312 314 315 315 314 318 321 310 304 305 305 305 306 306 309 312 313 313 313 314 314 313
308 308 308 309 311 313 313 313 313 313 312 312 314 314 312 312 311 311 315 314 310 313 318 317 310 310 314 314 314 315 313 313 313 312 313 315 312 308 307 308 307 307 308 310 310 309 313 317 315 313 314 314 314 315 315 316 313 313 317 314 312 314 312 312 314 312 313 314 313 315 315 312 314 316 314 311 310 310 309 308 310 312 313 314 314 314 314 313
307 307 307 307 308 309 309 310 311 312 312 313 314 313 315 316 312 310 313 313 310 311 313 312 310 312 315 314 314 314 312 313 314 313 314 315 314 310 307 307 307 306 309 310 307 310 318 317 313 313 313 312 313 315 316 317 315 314 316 313 311 311 311 315 318 315 314 313 311 314 315 311 313 317 315 314 318 319 313 308 310 313 313 314 314 313 313 313
306 307 307 307 307 307 307 308 310 311 312 312 313 312 314 316 315 312 312 312 311 312 313 312 311 315 316 315 316 315 313 314 314 312 313 314 313 311 308 307 308 308 309 308 306 312 319 315 311 314 313 312 316 318 317 316 316 315 315 313 312 311 312 314 316 313 313 313 312 312 312 310 312 316 317 318 320 320 312 307 311 314 313 313 313 312 312 312
305 306 305 306 307 307 306 308 309 310 311 312 313 313 313 314 315 314 313 311 311 312 315 314 313 316 316 314 316 316 313 315 315 312 313 313 313 313 311 309 309 308 309 308 306 312 319 314 312 313 311 312 316 318 316 315 315 315 314 314 312 312 312 313 313 312 313 313 312 312 313 312 311 313 317 317 314 314 311 309 311 313 313 312 311 311 312 312
303 304 304 305 306 305 306 307 308 309 310 312 313 313 313 313 313 313 313 313 312 312 314 317 316 316 316 315 318 318 314 314 315 314 313 313 314 316 316 314 311 307 309 310 308 310 314 316 315 312 309 311 315 316 315 314 314 314 314 313 312 311 312 312 312 312 312 312 312 313 314 314 311 310 313 312 310 311 310 309 311 312 312 312 311 311 312 311
302 303 303 304 304 304 306 308 308 308 309 310 312 312 312 313 313 313 312 313 315 313 313 316 317 315 315 316 319 319 315 315 318 317 314 315 315 316 318 318 314 309 310 313 311 309 309 314 314 312 310 312 313 314 314 313 313 314 313 312 311 311 311 311 311 312 311 311 312 312 313 313 310 308 309 309 309 309 308 308 310 311 311 311 311 311 312 312
302 302 303 304 304 304 306 307 307 308 308 308 310 311 312 313 312 313 312 311 313 314 312 314 316 314 313 316 318 317 314 315 318 315 312 314 315 315 315 314 313 313 313 313 314 312 310 313 313 313 313 314 311 310 312 312 311 312 313 313 312 311 311 310 310 311 312 312 312 312 312 312 309 308 309 308 307 307 307 309 309 310 311 311 311 311 311 311
301 302 302 304 305 304 305 307 307 307 308 308 309 310 311 312 311 312 313 312 311 312 312 312 314 315 314 315 316 315 312 312 313 312 311 312 312 311 312 310 310 313 314 313 315 315 313 316 317 314 315 315 308 307 312 313 311 312 313 312 311 310 310 310 310 311 311 312 313 312 311 311 310 310 312 310 306 305 307 309 310 311 311 311 311 311 311 311
Wind_Speed
24 22 23 29 30 29 29 28 28 28 26 26 28 30 33 34 34 31 29 26 23 21 19 19 19 20 20 19 18 14 13 16 18 20 25 24 20 18 16 13 12 13 11 10 13 12 10 10 11 12 12 11 9 11 12 9 10 6 3 3 2 3 3 6 7 7 4 2 6 11 15 11 4 7 8 6 7 6 9 13 9 11 11 8 6 3 11 18
26 22 24 29 29 28 28 27 27 26 24 23 23 27 30 33 33 31 29 26 23 21 20 20 19 19 20 19 18 15 14 16 18 25 27 22 18 17 17 15 12 12 12 12 14 13 11 12 13 14 13 10 8 11 11 8 8 4 3 3 3 5 4 5 8 9 3 2 9 11 13 12 6 9 11 5 5 6 6 10 11 11 14 13 9 6 10 17
27 22 24 28 27 27 27 26 26 25 23 22 20 24 29 31 32 31 29 27 25 24 22 21 21 21 19 19 17 14 15 16 21 31 29 21 19 17 17 16 13 12 13 12 13 12 11 12 14 14 13 9 8 10 9 7 6 2 4 3 4 6 3 3 7 9 2 2 10 12 11 11 7 9 11 6 4 5 6 9 11 13 16 16 13 9 10 16
28 25 25 27 27 27 27 26 25 24 23 22 21 23 27 30 31 30 29 28 27 25 23 22 21 21 19 20 16 14 16 13 22 33 27 21 21 18 17 16 14 13 12 12 12 12 12 13 15 15 11 6 6 9 7 6 6 3 5 3 4 5 2 2 5 6 3 2 9 13 11 8 7 10 11 8 4 3 10 14 14 14 13 14 16 13 11 16
28 26 26 27 28 27 25 26 25 23 22 22 22 23 26 29 30 30 30 29 27 25 23 22 22 22 20 20 17 17 14 5 14 25 22 21 20 18 18 15 15 14 12 12 13 14 14 14 16 14 8 4 6 7 4 5 7 4 2 2 6 6 3 2 3 4 5 4 9 13 10 8 9 9 12 11 7 4 9 12 14 14 11 12 15 14 13 16
28 28 26 27 29 27 24 24 23 21 21 23 24 25 26 28 29 29 30 29 27 25 23 23 23 23 21 20 18 17 15 6 6 10 16 21 19 19 17 15 16 15 13 12 14 15 15 17 17 13 7 4 4 5 5 7 8 4 0 3 8 6 4 4 3 4 7 7 11 13 9 10 10 6 10 15 14 9 4 4 7 11 13 12 13 15 14 15
29 29 26 24 26 26 23 23 23 22 23 25 26 26 26 27 28 28 29 28 26 24 24 24 24 23 21 19 18 18 20 19 11 6 9 19 18 19 16 15 17 15 15 14 16 16 16 19 18 14 8 4 4 4 6 8 5 3 2 4 7 5 5 4 3 5 6 8 10 12 9 9 10 6 6 16 21 15 8 3 2 5 12 14 14 15 14 13
28 29 26 23 24 25 24 22 22 23 24 26 27 27 28 28 29 29 28 26 25 25 24 25 25 23 21 20 19 18 21 27 20 10 7 16 17 18 17 15 17 16 16 16 17 18 17 19 19 14 7 3 6 7 9 8 1 2 4 6 8 6 6 6 5 7 5 6 9 11 8 5 9 6 5 14 18 16 16 13 7 4 8 14 15 15 15 14
26 27 25 22 24 26 25 22 21 22 23 24 27 29 30 30 30 29 28 26 26 25 25 26 24 23 21 21 19 14 19 26 22 10 5 13 17 16 18 16 17 17 16 17 17 18 17 19 20 14 6 6 9 8 10 7 1 3 7 9 9 7 7 8 7 8 6 7 9 8 4 2 6 4 8 15 15 14 17 17 16 11 7 12 16 16 15 15
24 25 22 19 22 25 26 24 21 22 21 22 27 29 30 30 29 28 28 26 26 26 26 25 23 23 21 22 18 9 17 22 21 14 7 11 18 16 17 15 16 17 16 18 18 18 17 17 18 12 8 9 10 7 7 5 3 9 14 13 11 9 7 6 8 8 8 8 6 6 2 1 4 2 5 8 8 11 15 15 17 17 13 11 14 17 16 16
23 22 20 18 20 24 26 25 24 23 20 21 27 29 29 29 28 28 27 26 26 26 25 24 22 23 20 21 18 9 14 16 17 18 10 11 18 16 16 14 15 16 16 18 18 19 15 14 17 11 5 8 10 7 5 5 7 16 18 13 9 8 9 7 8 8 6 5 3 4 2 1 3 3 6 6 3 5 10 15 15 17 17 13 13 16 18 17
22 21 19 19 20 23 25 26 25 23 20 24 27 28 27 27 27 26 26 25 26 25 23 23 21 21 20 19 18 14 12 11 12 14 11 13 17 15 15 14 14 15 15 16 17 19 13 12 17 9 5 12 10 5 6 9 11 13 12 6 5 5 7 6 5 4 3 3 3 5 1 3 3 6 7 6 6 5 6 12 14 15 17 15 14 15 18 19
21 21 21 19 19 20 23 26 26 23 23 26 26 26 26 26 26 25 24 24 24 24 22 22 20 20 19 14 16 18 13 9 9 10 10 14 16 14 14 13 14 14 14 14 15 18 13 11 15 10 11 14 7 7 10 10 10 7 4 4 3 5 4 4 4 2 3 3 3 5 1 6 7 9 8 6 8 7 7 9 12 14 16 17 16 15 17 19
20 22 21 19 18 19 21 25 26 25 24 24 22 24 25 25 25 24 24 23 23 23 21 21 20 20 18 11 11 18 18 11 8 9 11 15 16 14 13 13 13 13 13 12 12 15 13 11 13 11 12 12 11 14 10 5 5 4 2 2 3 2 3 4 4 2 4 2 3 6 1 6 8 7 6 10 11 9 9 10 12 14 16 18 18 17 17 18
19 21 20 19 19 19 21 25 25 24 23 22 22 24 24 24 24 24 23 22 22 21 20 21 20 18 14 10 8 14 19 16 11 9 11 15 16 15 14 14 13 13 13 12 12 13 13 13 12 10 11 13 17 13 4 4 4 3 2 0 2 3 4 6 4 3 4 2 3 7 1 6 8 7 2 5 9 11 12 11 12 14 15 17 18 20 20 19
18 20 20 20 20 19 22 24 24 24 23 22 23 23 24 23 23 23 22 21 21 20 20 20 20 17 9 7 9 11 16 19 14 10 13 16 16 15 15 13 12 12 13 13 12 13 15 13 11 12 11 12 10 6 4 4 4 4 2 3 1 3 2 4 2 4 3 3 2 3 2 3 3 5 2 1 1 6 10 12 12 12 13 15 17 20 21 22
17 20 20 20 20 20 22 24 24 24 24 23 23 22 23 23 22 22 21 21 20 19 19 18 20 15 5 6 10 11 14 18 16 12 14 17 15 14 14 14 13 12 12 13 13 14 14 12 11 9 6 5 3 5 6 1 2 2 2 3 2 3 2 2 2 3 4 3 1 2 1 6 6 7 7 5 5 6 8 10 11 12 13 14 16 19 21 22
17 20 21 22 21 21 23 24 25 25 24 24 21 20 21 21 20 20 20 21 21 19 15 16 18 9 5 10 11 11 15 17 16 13 15 18 15 14 14 13 13 13 13 13 11 11 9 7 7 4 3 3 1 5 5 4 5 5 2 4 2 2 3 2 3 2 3 3 2 0 2 9 10 12 17 16 11 12 13 13 14 15 14 12 13 17 19 21
17 19 21 23 22 23 23 24 25 24 24 24 21 21 21 21 19 17 21 23 20 12 7 15 20 6 3 13 14 11 14 16 16 15 17 18 15 15 14 12 14 16 14 9 5 6 7 5 5 4 3 4 5 5 7 7 8 9 6 5 5 4 3 4 4 4 1 3 2 4 5 8 9 11 18 20 13 12 16 16 17 18 17 16 15 17 18 20
16 18 21 23 23 24 22 23 24 23 25 24 25 25 21 20 14 10 20 23 16 5 1 19 26 6 2 14 19 14 14 16 17 18 18 18 17 16 14 14 15 12 8 5 3 3 5 4 4 5 7 8 7 6 6 5 7 8 6 4 4 4 2 3 3 5 1 3 2 3 3 7 10 10 17 22 15 12 17 18 19 19 19 19 19 19 20 21
16 16 19 22 24 24 22 23 22 23 26 25 29 26 20 21 11 9 19 14 9 5 2 20 28 8 1 12 21 18 16 15 15 20 19 18 19 15 12 13 10 5 2 4 5 2 4 5 6 6 7 7 6 7 8 7 7 6 6 5 2 2 2 2 2 3 3 1 2 1 3 8 11 10 16 19 10 11 18 18 19 20 19 21 21 22 23 23
16 15 17 20 23 24 22 23 21 24 28 28 32 25 21 25 13 17 24 9 8 7 1 20 26 8 2 12 18 19 16 10 11 19 20 20 20 13 10 9 6 4 1 4 6 3 3 4 7 6 7 9 6 5 9 8 7 5 4 5 2 2 2 1 2 3 3 0 2 2 3 8 10 9 14 17 13 17 21 19 20 21 21 23 23 23 24 26
17 15 16 18 22 23 23 23 23 27 31 31 33 24 21 23 12 18 23 8 8 6 1 19 24 11 7 12 17 17 13 8 9 18 20 21 19 13 12 8 5 5 3 4 6 5 4 5 5 8 11 11 6 4 9 8 5 4 4 5 3 2 2 1 2 2 3 2 1 1 2 7 7 5 10 13 13 16 19 19 21 22 25 26 25 27 28 29
18 16 15 17 21 23 24 24 25 30 32 32 31 23 22 21 13 20 18 6 4 3 2 15 20 15 10 11 16 14 10 9 11 18 20 20 18 13 12 9 6 5 4 5 7 7 4 4 3 9 7 9 8 4 7 7 3 1 3 6 4 4 4 3 2 1 2 3 2 1 3 6 4 4 7 5 5 9 10 12 16 17 19 22 23 25 26 26
18 17 16 17 20 23 25 25 27 32 33 32 30 23 22 20 17 21 12 6 2 1 1 9 11 13 11 10 15 13 9 8 11 19 20 19 17 11 8 8 6 4 4 6 7 5 3 1 6 9 4 7 8 4 5 6 4 0 3 5 6 8 6 3 3 4 3 2 3 4 2 5 4 4 6 4 6 7 7 9 14 13 12 14 18 20 19 20
19 18 17 18 21 25 26 24 28 33 33 33 30 23 22 21 21 20 8 5 1 2 3 7 6 10 12 10 14 14 7 5 11 20 21 18 16 11 7 4 3 3 5 6 5 2 1 2 5 7 6 7 7 5 6 5 6 2 3 4 7 8 9 7 5 4 2 1 2 3 2 4 6 5 6 4 7 10 9 9 11 9 8 10 14 16 16 17
21 19 18 20 23 28 28 25 30 35 33 32 29 24 23 23 22 16 5 5 2 4 6 6 6 10 12 12 17 12 4 6 12 16 18 17 14 11 8 3 3 3 4 5 3 1 2 4 3 5 6 6 6 5 5 6 8 3 2 5 8 9 9 7 6 4 2 2 2 4 3 1 5 5 6 5 6 9 8 7 9 9 7 7 8 11 12 13
22 20 19 22 25 30 29 25 32 37 32 30 28 24 24 25 21 11 5 2 2 5 6 4 6 10 13 16 17 9 6 12 10 9 16 16 12 9 5 5 5 4 2 4 4 2 3 5 5 6 6 4 5 4 4 7 6 2 2 5 7 8 7 5 6 4 1 1 2 4 3 1 5 6 5 5 4 8 8 7 8 8 8 7 5 4 5 5
21 20 22 24 26 30 28 23 30 34 29 29 27 24 26 26 17 6 3 2 2 4 4 6 8 9 13 15 10 6 8 8 4 8 16 14 10 6 4 6 10 8 4 4 5 2 1 4 6 6 5 4 3 1 1 3 3 4 6 7 7 7 6 5 5 4 3 2 3 4 3 0 5 6 4 3 2 7 7 6 7 6 6 8 9 8 6 6
22 22 24 27 28 32 27 22 28 30 28 29 26 25 29 23 11 5 2 4 3 2 3 7 7 8 12 9 2 2 4 2 4 12 12 8 8 7 9 10 10 8 5 7 5 1 1 1 1 2 3 5 6 4 4 4 8 11 7 7 7 6 5 4 3 4 3 2 5 4 3 0 3 6 4 2 3 5 3 3 5 5 5 8 10 11 12 12
25 25 27 30 31 32 27 23 29 30 29 30 25 27 27 13 4 4 5 3 3 2 2 3 3 7 13 9 3 2 2 2 4 11 7 4 6 6 9 8 5 5 3 4 4 4 3 3 1 1 4 7 8 6 7 6 9 8 4 6 5 4 4 4 4 3 2 4 6 4 3 1 3 5 3 4 6 5 4 3 4 5 6 8 10 11 12 13
27 27 30 32 31 30 26 24 30 30 29 29 28 28 19 5 1 5 4 4 3 3 4 4 3 6 10 7 4 4 3 2 3 5 5 3 4 4 5 4 4 4 1 3 1 3 3 1 2 1 2 4 5 6 4 4 3 5 5 6 5 2 2 2 2 1 2 5 3 2 2 1 5 7 7 8 9 7 8 8 7 8 6 6 8 8 9 11
27 28 31 31 29 28 23 23 30 31 30 31 28 20 9 2 7 6 4 4 2 2 4 4 2 6 10 7 4 3 3 2 3 3 2 3 4 3 1 2 5 5 3 5 4 2 1 4 2 2 1 4 3 6 4 2 0 5 6 6 4 3 3 2 3 2 3 3 2 3 2 2 4 6 8 12 10 7 9 11 11 11 8 4 6 5 5 8
27 27 27 26 26 24 20 23 31 30 31 34 24 10 5 6 7 5 6 5 1 2 3 4 6 7 7 5 5 5 3 1 3 3 2 3 6 5 3 2 3 5 4 3 3 4 3 3 3 2 2 3 3 3 6 5 4 2 2 5 6 5 5 4 4 3 3 2 3 3 2 3 3 2 6 10 11 11 12 13 15 16 14 9 8 5 1 3
25 25 23 22 23 22 19 27 32 30 35 32 16 5 8 8 4 4 7 5 1 2 3 5 9 8 4 2 1 4 2 1 3 3 3 5 6 7 6 5 5 4 6 5 3 2 3 3 3 3 2 3 3 2 3 6 3 1 1 5 3 4 5 4 3 5 3 0 2 2 3 4 3 5 8 8 10 12 11 11 13 15 15 11 8 4 2 4
26 26 23 20 22 21 22 31 32 31 36 26 9 7 9 4 3 4 6 5 4 6 7 5 4 5 4 2 1 4 0 2 4 3 4 4 3 6 5 5 6 5 5 6 3 1 2 2 4 4 3 3 1 2 2 3 3 2 2 3 4 3 8 6 2 1 4 1 3 1 3 5 3 7 8 4 6 8 6 7 8 9 9 8 5 2 5 6
31 29 26 23 21 20 25 33 33 33 33 19 7 8 3 1 4 4 4 6 8 10 10 5 2 4 6 4 4 7 2 3 4 3 4 3 2 5 5 4 6 8 6 4 3 3 5 2 3 2 2 3 2 4 7 6 4 4 3 5 4 3 5 5 2 3 4 1 4 1 4 5 2 3 7 6 5 8 6 6 6 5 6 6 3 4 7 8
35 32 30 27 22 21 26 31 33 33 25 11 7 6 1 1 3 2 4 7 9 8 6 5 3 3 7 7 6 7 5 4 5 4 4 3 4 6 8 5 5 9 9 4 2 2 5 3 2 2 2 2 3 4 5 6 6 4 5 5 4 3 2 2 2 2 1 2 4 3 3 4 3 5 5 3 6 8 8 6 5 5 7 6 3 5 8 8
34 28 25 28 25 22 26 29 32 30 16 7 8 5 1 2 1 2 7 8 7 6 5 5 2 1 5 7 7 8 7 6 7 5 4 4 4 5 9 6 3 8 10 6 3 2 4 4 1 1 1 1 3 1 5 1 5 5 4 3 2 3 4 2 2 4 3 3 3 4 4 3 6 6 5 7 8 7 6 4 4 8 10 6 4 8 10 10
30 18 14 27 29 24 26 27 26 20 9 6 6 3 1 3 1 3 7 7 3 3 4 4 3 4 4 4 4 6 6 6 9 6 4 5 4 4 7 6 5 7 7 4 3 2 3 3 3 1 3 1 2 2 6 7 3 3 3 3 1 2 2 2 1 2 4 4 3 2 3 5 6 5 7 9 7 4 4 3 4 7 9 6 8 14 15 17
25 8 8 27 30 27 29 23 15 10 4 2 3 2 2 3 3 4 6 6 3 3 3 4 4 5 5 4 3 5 4 4 7 6 3 5 5 3 6 8 9 10 6 4 3 4 2 3 5 2 1 3 3 3 3 5 5 5 5 6 6 4 4 3 2 1 2 3 4 3 3 8 6 4 6 7 5 4 5 5 4 3 7 9 13 18 20 22
18 4 8 24 26 30 31 15 4 4 3 3 4 3 4 4 4 4 5 4 3 3 3 4 3 3 4 3 3 5 6 4 5 6 3 5 5 2 3 7 14 17 11 4 2 3 3 4 5 2 3 4 3 3 1 2 1 3 2 4 5 4 5 6 5 3 2 2 2 4 1 7 6 4 5 6 6 7 6 5 2 4 10 14 17 21 22 23
11 6 11 21 24 31 26 8 2 4 1 3 5 5 5 5 3 3 3 2 2 2 2 2 2 2 3 2 3 6 7 4 5 5 2 3 4 1 1 8 15 16 10 3 2 4 3 4 4 1 3 3 4 4 3 2 2 2 2 2 4 3 3 5 5 4 4 4 3 3 2 7 6 3 3 5 7 8 6 4 3 7 13 17 20 22 22 21
10 8 9 17 27 30 18 5 7 7 2 3 5 4 3 3 3 5 4 3 2 2 3 2 1 1 2 2 4 6 6 4 4 4 1 2 3 1 1 8 13 11 6 3 6 9 5 2 5 3 2 3 4 4 3 3 1 3 3 2 4 4 6 4 2 4 2 5 7 5 4 7 6 4 3 3 4 5 4 6 7 8 13 17 20 22 20 18
7 5 4 9 20 21 9 3 7 7 4 5 5 4 4 3 1 4 5 4 3 3 4 2 2 4 3 2 3 3 3 2 3 4 2 1 0 2 2 5 10 7 2 1 8 13 7 2 5 7 5 6 5 4 4 3 2 2 2 4 5 7 9 5 3 4 3 5 7 6 6 5 5 6 5 4 4 2 4 8 9 11 14 17 20 20 17 14
5 2 2 4 7 7 1 2 8 7 6 7 5 4 5 3 0 3 5 4 2 4 4 2 3 5 3 3 5 4 3 2 2 3 4 2 1 2 3 3 7 5 2 4 12 13 4 1 5 7 9 10 8 5 3 6 6 4 4 7 7 7 9 6 5 4 5 3 4 8 9 6 5 5 5 5 4 4 5 9 12 14 17 19 18 16 14 11
3 1 3 3 2 2 2 1 7 6 7 10 6 4 6 5 2 2 2 1 5 6 4 2 3 4 4 6 5 4 4 2 2 3 3 2 1 1 3 4 4 4 3 5 10 9 3 2 7 7 9 7 5 5 4 7 9 9 8 10 9 9 9 8 7 10 6 6 6 10 7 8 8 6 7 8 6 5 8 12 15 17 19 19 16 13 10 8
3 1 4 4 3 2 1 3 6 4 5 9 6 4 8 7 6 5 1 1 3 5 2 2 1 3 7 9 6 4 5 3 2 2 2 1 2 2 3 4 2 2 3 3 5 5 4 5 6 6 8 4 4 4 5 7 7 7 10 12 12 12 12 12 15 15 8 7 13 9 9 11 13 8 9 10 9 10 14 16 16 17 19 16 12 11 10 8
4 3 4 5 3 2 4 9 9 4 4 6 4 5 10 10 8 5 2 3 2 3 3 4 4 5 6 6 5 6 7 5 3 3 2 3 3 2 2 2 0 1 3 3 2 2 3 3 2 4 6 4 2 3 4 6 5 4 9 13 13 15 17 17 19 17 12 11 14 7 8 13 12 8 10 15 16 17 15 13 13 16 18 15 13 14 13 12
4 4 5 6 3 2 7 11 10 6 3 3 3 5 8 11 10 5 2 5 5 3 3 4 6 6 5 5 6 5 6 7 6 5 6 6 4 3 3 4 3 2 2 2 1 1 3 2 1 4 3 4 2 3 3 4 5 4 6 9 11 14 16 17 17 14 9 9 13 8 7 13 8 9 13 19 19 16 13 13 16 18 19 19 19 20 19 17
5 6 8 7 3 2 6 7 7 6 3 3 4 4 7 11 11 7 2 3 6 7 6 7 7 5 4 4 5 5 6 6 7 11 12 8 7 5 2 4 8 6 3 3 2 2 3 2 2 4 3 4 2 3 5 5 5 0 4 8 12 13 12 12 11 8 8 10 13 9 9 13 6 11 14 17 15 16 18 21 24 24 25 27 27 27 25 22
7 7 8 7 3 1 4 5 5 5 3 4 5 3 5 7 8 8 4 2 4 8 11 13 10 6 4 5 6 9 12 11 10 14 14 9 9 8 6 7 11 7 5 4 2 2 4 5 2 3 5 3 4 3 7 7 5 3 8 12 16 13 9 7 5 7 10 11 9 8 12 13 6 9 10 9 10 16 22 25 28 29 31 31 31 31 29 22
Wind_Direction
204 204 199 187 181 186 192 196 200 200 200 199 200 202 202 203 204 203 203 202 199 199 201 204 198 198 208 207 203 203 213 230 240 240 241 245 245 243 246 244 231 228 229 206 198 203 204 203 193 181 171 166 164 154 142 139 138 128 102 90 141 175 197 188 181 191 163 178 190 177 178 170 175 187 175 171 185 199 198 199 201 202 205 195 190 194 185 185
204 203 195 185 186 191 194 200 199 195 195 192 194 196 195 197 198 197 197 196 192 193 197 201 205 209 211 216 213 201 211 235 249 249 246 246 245 244 242 236 224 221 223 209 201 203 205 201 187 174 171 169 159 153 146 144 136 111 101 110 200 198 199 192 182 186 148 109 171 171 180 179 182 179 174 182 189 185 192 205 209 212 214 211 208 206 197 193
202 197 188 183 186 192 196 199 196 194 192 187 189 190 188 189 191 192 191 190 188 190 195 200 207 213 209 209 208 194 210 240 255 253 250 243 241 240 233 230 219 212 217 210 203 205 206 199 185 173 170 164 153 156 148 145 147 102 111 120 236 210 196 194 186 190 182 96 162 166 177 182 187 180 181 196 179 182 206 209 210 217 219 215 213 212 205 199
196 190 185 184 187 192 195 197 196 193 188 185 188 186 183 184 185 186 186 186 189 190 192 199 207 210 206 202 195 186 204 238 257 255 253 242 238 234 227 224 211 205 212 207 201 201 196 191 182 174 167 150 144 158 151 148 166 139 126 158 211 178 126 171 185 198 206 153 167 164 164 185 196 186 189 183 151 237 237 224 221 224 218 211 210 213 209 203
190 186 187 192 191 189 193 197 195 190 186 186 187 186 183 182 182 182 183 186 189 191 192 198 207 207 202 198 189 185 190 224 265 258 254 240 231 227 223 217 205 200 203 204 200 191 185 184 178 171 160 135 137 150 156 149 149 129 108 143 141 137 113 146 165 189 194 162 164 161 158 186 186 191 199 187 181 229 241 236 234 235 227 216 212 212 210 205
187 187 191 198 193 187 191 194 191 185 185 187 188 187 186 184 184 182 183 187 188 190 193 199 204 202 197 195 186 181 184 196 275 266 239 226 220 218 216 212 203 198 202 203 194 187 181 178 173 169 147 115 145 148 159 158 151 141 325 130 123 117 105 125 155 177 186 170 167 168 171 182 173 196 211 207 217 219 231 253 239 238 231 225 220 216 214 207
190 190 195 201 195 187 187 189 186 183 184 187 188 187 187 187 187 186 187 188 189 189 194 199 200 197 193 190 182 181 198 217 245 302 229 207 208 210 209 209 201 198 203 197 191 188 182 177 172 166 137 97 162 150 150 156 156 136 138 159 130 103 92 104 146 152 169 180 178 174 175 180 180 197 219 224 230 226 228 239 227 238 225 222 223 222 223 217
194 195 197 201 199 188 182 184 184 182 182 182 184 185 188 190 190 190 190 189 189 189 193 196 195 193 190 188 183 184 208 222 234 281 247 198 201 205 202 202 198 199 201 196 195 189 183 180 172 163 139 119 164 152 146 141 83 102 134 158 133 106 99 88 112 132 139 162 167 168 171 189 196 203 240 239 237 231 236 240 241 246 221 220 222 224 225 222
195 197 200 202 201 191 180 179 181 179 177 177 179 182 185 188 189 188 188 187 186 187 191 192 191 190 188 189 184 189 217 223 225 253 269 199 196 198 198 198 197 198 197 195 195 191 188 183 175 169 161 158 151 149 155 150 258 166 136 140 129 106 106 96 102 118 119 138 154 161 158 187 193 220 263 254 252 242 239 242 241 241 234 223 221 224 224 224
194 198 202 201 199 195 182 176 180 176 171 175 176 177 181 183 182 182 181 181 182 185 188 188 189 188 186 189 183 194 222 222 224 237 265 207 193 194 197 198 198 199 197 194 192 192 192 186 180 168 156 155 143 144 161 163 184 146 124 112 106 99 103 104 107 110 114 127 151 168 156 132 160 199 260 251 262 249 238 239 238 236 238 233 226 225 225 227
193 198 200 195 194 196 186 177 178 172 170 177 175 174 177 177 175 176 176 177 181 184 185 185 186 186 187 190 187 199 218 220 227 233 249 214 195 194 196 199 200 198 198 196 192 191 193 191 180 160 149 162 142 124 133 135 136 135 125 98 70 86 91 86 104 109 109 111 131 152 145 49 123 198 239 229 266 273 237 231 234 233 234 236 233 228 226 228
189 193 195 192 192 193 187 179 174 172 177 177 173 174 174 173 172 173 173 175 181 182 182 182 182 185 186 193 198 203 212 220 224 228 236 212 197 194 194 195 197 196 198 199 195 190 189 188 183 175 150 155 143 111 126 131 126 127 125 102 15 42 63 46 70 98 104 101 110 110 83 293 215 223 239 238 243 261 239 226 230 232 232 233 234 231 227 228
185 188 191 191 191 189 186 180 174 177 180 175 172 173 172 170 170 171 172 175 180 181 179 179 179 183 184 191 207 207 210 218 217 221 221 205 197 193 189 189 191 191 192 195 195 191 187 183 189 183 147 148 140 124 133 123 117 116 96 100 52 30 19 9 28 83 113 106 127 117 269 276 259 244 243 249 234 232 238 230 230 230 230 231 232 234 230 228
185 186 189 189 189 186 185 182 179 180 178 172 173 175 172 169 168 169 171 175 178 178 177 175 175 180 183 190 210 212 216 221 218 221 212 199 193 186 182 182 181 182 181 181 186 188 184 178 182 168 142 142 128 121 116 71 84 101 64 57 73 131 253 330 13 90 125 131 142 122 180 265 271 269 250 247 236 225 235 234 234 233 232 232 233 236 235 231
187 186 186 188 188 185 183 182 182 179 174 173 177 178 174 169 168 168 169 173 175 176 174 172 173 175 182 198 212 213 217 222 224 221 206 194 188 181 176 174 171 171 170 166 171 174 171 175 172 142 123 132 129 117 75 25 35 41 108 332 358 155 243 319 14 58 119 148 112 116 195 271 268 273 283 256 237 225 236 240 236 235 234 235 236 237 239 237
187 185 185 188 186 184 181 180 181 177 173 177 179 178 174 170 168 168 169 171 172 172 169 169 172 170 170 201 206 206 211 216 220 215 200 189 184 179 172 166 163 163 163 162 166 161 157 163 148 120 119 131 129 109 69 46 5 356 105 166 235 159 239 312 12 18 69 128 79 105 207 270 281 265 220 88 248 227 238 246 243 242 247 245 242 242 241 241
187 184 184 186 185 183 180 180 180 175 174 178 178 177 173 169 168 168 167 168 167 165 166 169 170 169 183 204 199 202 204 207 209 207 194 184 181 181 173 161 158 162 160 159 162 156 153 150 135 123 114 114 108 102 98 45 265 283 45 114 188 174 176 270 278 344 43 120 172 54 219 244 269 273 247 250 301 285 260 256 255 256 258 252 245 243 242 241
188 184 183 184 185 185 182 181 179 175 175 175 175 175 171 167 167 165 164 163 158 154 159 167 162 164 228 210 196 197 198 198 198 195 186 181 178 179 178 164 158 161 153 149 155 152 145 129 125 128 54 68 125 119 136 206 187 174 161 132 164 191 193 241 234 279 29 99 176 82 263 259 273 282 272 272 284 283 275 272 271 269 264 256 247 243 241 242
189 185 184 184 186 186 184 182 178 175 174 172 171 170 164 158 154 156 163 159 152 147 161 173 165 149 242 198 190 186 189 187 186 183 179 177 172 174 178 167 163 160 146 138 155 153 133 104 105 129 128 163 193 163 170 195 164 158 163 141 150 168 224 247 245 280 10 115 199 222 235 269 279 284 281 280 283 279 276 275 272 269 266 258 249 246 243 242
193 187 186 186 188 186 184 183 180 176 173 172 171 165 155 149 139 146 163 160 156 141 145 176 175 170 25 178 180 176 172 173 176 176 174 175 171 169 165 159 158 152 143 144 161 154 125 129 159 179 185 184 181 151 142 144 128 132 126 108 138 151 205 244 261 307 10 144 236 234 244 275 271 273 277 279 286 278 270 269 266 264 261 258 253 249 246 244
197 191 189 190 189 186 186 183 180 176 173 173 172 168 163 161 153 160 162 159 171 155 102 176 179 192 21 167 172 168 160 160 171 173 172 174 169 167 162 155 147 131 145 129 118 113 115 157 205 212 190 162 145 128 112 95 89 100 126 130 135 160 190 228 243 318 1 171 249 354 314 273 264 266 270 274 277 262 260 260 261 263 259 258 256 253 251 249
199 195 191 193 190 187 186 182 179 176 172 172 173 174 176 174 175 172 163 150 177 174 115 176 181 194 129 160 166 162 153 145 163 172 171 171 170 174 167 151 135 138 161 107 108 110 140 204 231 202 144 109 87 93 97 89 88 86 112 132 149 202 207 287 297 336 14 120 263 355 325 273 264 261 264 264 254 256 262 257 259 262 260 258 257 256 255 253
200 197 194 195 191 188 185 181 179 176 174 174 175 177 181 180 182 171 162 132 160 174 124 175 183 188 147 155 166 163 154 139 159 172 172 172 174 175 163 144 122 136 151 161 148 148 175 249 239 167 141 112 81 78 96 86 82 90 112 131 168 214 162 185 242 321 18 59 284 267 279 281 282 284 274 264 254 259 265 260 258 257 257 258 258 259 260 258
201 201 200 197 192 189 184 180 178 176 177 176 175 178 181 181 174 163 153 87 134 172 149 175 185 187 167 158 169 170 160 150 162 172 174 175 171 165 160 144 123 134 162 169 147 147 192 278 171 147 141 122 111 104 114 107 76 48 148 143 162 186 172 186 178 81 14 23 34 37 311 294 311 319 286 285 291 272 270 269 262 255 256 260 260 261 263 264
202 205 207 199 193 190 182 178 177 177 178 176 174 176 179 179 166 158 145 60 113 171 141 175 183 188 184 169 173 172 156 152 162 170 175 178 169 156 150 141 135 165 179 142 122 144 214 282 144 141 124 124 125 143 166 137 112 246 211 175 170 167 153 140 116 86 49 3 4 27 339 287 317 310 268 309 343 301 293 287 273 270 269 266 266 266 266 265
203 207 211 203 195 185 177 177 179 178 179 177 175 172 176 175 161 158 144 50 195 222 153 172 174 184 188 175 167 158 145 162 167 171 174 176 174 159 143 130 96 158 175 142 121 151 193 95 126 134 133 134 131 169 198 146 119 170 225 163 141 131 126 134 131 101 106 198 339 42 144 258 314 304 270 315 331 302 300 291 288 304 302 281 275 271 268 265
206 208 211 204 193 182 176 178 180 178 178 178 174 170 174 171 160 160 131 39 250 179 145 169 169 177 182 168 162 153 147 166 158 169 173 170 177 165 157 166 76 132 171 137 132 194 128 116 89 103 115 123 140 185 208 146 129 183 240 122 123 120 130 142 117 99 176 210 334 16 103 219 297 276 274 329 327 302 305 303 314 338 338 315 294 280 276 271
208 208 207 199 190 182 178 180 182 179 177 175 171 169 170 166 161 156 114 82 202 143 140 171 161 166 168 162 165 155 136 147 141 174 175 167 172 161 161 188 138 133 146 130 177 251 109 160 170 136 120 139 171 217 200 130 110 237 211 115 120 117 119 116 94 91 25 25 297 329 38 159 266 275 301 354 331 291 296 297 306 332 354 6 4 325 300 283
206 202 199 191 182 178 179 183 184 179 173 168 167 167 165 161 155 123 91 165 154 109 135 153 151 162 159 153 160 138 130 142 125 164 167 161 169 158 136 159 135 110 54 79 158 207 62 185 187 146 142 174 180 280 217 119 96 171 148 98 83 76 78 77 83 95 45 39 235 280 7 202 265 285 307 12 305 261 274 279 279 310 359 29 40 52 67 84
198 193 191 184 177 177 180 184 182 177 169 165 163 161 158 155 145 109 162 203 142 98 129 147 159 164 150 135 93 85 120 117 111 138 148 146 151 133 112 127 121 103 45 38 88 216 327 112 127 97 136 156 133 74 36 79 125 140 122 80 69 44 40 51 54 79 66 316 251 263 317 320 270 281 257 204 221 218 231 288 286 311 15 40 47 61 75 87
188 188 186 180 177 179 180 181 178 173 168 164 157 153 151 141 109 139 184 185 115 103 115 140 166 154 153 149 135 138 81 40 133 139 143 131 123 118 113 118 100 82 52 39 46 336 4 70 31 45 116 125 109 68 43 71 114 119 94 95 89 18 14 27 3 40 101 250 262 277 304 187 215 263 251 238 254 223 201 235 268 298 353 35 52 65 74 86
184 184 179 174 177 180 180 178 173 169 167 163 155 152 145 108 174 183 175 150 144 182 173 172 198 167 161 147 125 151 112 92 175 146 146 143 136 148 144 159 149 103 129 175 98 359 38 51 319 62 144 158 115 82 48 10 41 82 105 115 100 24 17 2 317 340 205 239 271 291 284 216 230 252 258 261 264 241 226 234 253 284 316 21 45 56 71 88
170 168 167 173 180 179 177 173 169 167 166 164 158 149 122 119 199 190 165 172 186 187 149 138 147 152 151 138 138 164 105 112 192 153 129 136 145 180 201 165 142 119 172 175 129 101 36 310 309 101 219 227 153 119 138 262 235 132 138 134 133 118 100 240 260 288 258 255 292 285 266 261 267 266 249 247 253 244 243 252 266 277 284 328 360 19 64 91
157 158 164 176 181 179 175 169 166 166 164 163 158 137 120 184 194 151 161 203 262 56 92 108 116 129 143 147 176 173 96 61 179 114 87 126 145 188 221 217 145 98 109 139 148 161 166 262 236 163 209 192 167 157 152 139 128 168 163 126 146 155 147 196 209 196 230 265 304 293 267 200 211 277 242 243 265 269 257 259 262 262 262 278 309 328 28 108
155 160 167 175 181 183 177 168 165 164 165 162 150 148 184 192 191 146 169 191 168 83 69 104 124 133 145 62 165 191 122 152 174 113 142 166 168 188 189 195 192 133 125 152 194 168 152 236 265 313 304 145 155 210 131 107 108 239 116 105 154 180 136 135 171 170 164 359 305 264 242 217 211 287 277 264 281 278 263 263 260 255 254 262 286 307 186 179
158 162 168 175 180 183 176 168 165 165 167 160 147 195 200 185 184 181 163 146 146 135 110 102 110 129 157 79 164 227 336 113 156 144 179 192 195 196 187 189 189 175 158 153 163 163 148 251 315 351 9 50 112 201 88 97 160 157 118 161 210 163 113 114 160 69 80 143 268 222 253 288 324 296 295 314 295 285 279 265 251 245 241 239 259 237 174 176
172 174 177 178 179 181 177 170 167 169 170 166 176 201 194 112 174 169 135 126 137 139 129 140 166 145 163 167 187 201 180 118 152 163 181 195 221 192 189 212 190 187 192 153 157 196 152 131 336 21 74 11 22 99 66 44 86 122 174 197 185 119 93 110 134 19 48 225 277 284 238 284 341 277 316 348 280 269 272 248 239 239 214 198 213 200 181 170
180 181 178 178 180 182 176 172 173 172 171 176 196 193 112 127 184 156 144 137 133 139 145 159 170 154 168 175 182 183 173 160 169 172 170 194 243 192 172 193 195 191 196 155 128 185 128 112 327 12 132 299 344 92 87 28 37 101 168 157 120 131 148 101 126 143 119 224 275 302 276 262 203 224 296 309 228 247 258 247 251 236 194 179 195 190 180 168
178 175 169 171 176 180 175 174 176 172 171 195 197 194 159 140 183 178 160 146 127 136 164 174 156 119 174 174 167 171 178 175 167 175 179 185 234 204 175 177 184 191 191 158 144 174 116 121 210 298 270 280 360 103 176 180 27 51 107 111 79 125 157 162 142 160 173 184 241 310 327 260 224 217 224 223 222 233 232 226 244 220 191 171 164 157 154 150
174 168 160 166 170 178 176 171 172 172 183 208 182 180 192 134 147 187 163 153 120 111 170 183 155 142 163 167 156 166 180 175 168 182 201 182 194 217 198 184 156 171 173 119 121 155 105 126 160 306 318 217 182 220 192 176 141 100 121 151 170 73 114 162 91 111 139 153 183 263 302 267 249 209 202 219 232 232 210 220 260 223 197 167 140 138 134 132
168 157 162 170 169 170 168 163 168 180 193 185 146 145 194 149 137 153 157 151 99 66 133 143 140 148 152 153 164 166 158 155 173 186 203 193 193 210 209 191 159 154 143 94 134 162 130 138 146 142 243 193 221 264 207 180 168 158 170 181 174 144 122 152 237 280 108 134 166 167 258 270 255 210 207 219 239 278 278 273 287 216 174 148 133 133 131 129
164 136 165 177 175 166 163 161 170 168 148 159 155 141 149 143 134 145 155 140 91 60 88 103 112 137 149 154 151 156 151 149 181 190 194 202 195 173 197 185 163 158 151 128 156 155 115 106 115 146 211 208 266 301 227 218 168 132 180 188 164 152 130 146 201 223 124 123 139 118 256 272 260 224 218 226 253 289 289 265 278 126 145 142 135 136 135 133
152 118 150 170 173 167 163 167 193 158 149 165 137 111 130 140 131 139 153 146 103 64 66 97 142 145 163 166 140 162 168 161 181 188 185 189 183 145 175 168 163 159 151 137 156 150 122 101 107 64 307 309 325 347 14 6 58 123 232 180 150 174 143 142 178 169 141 167 142 89 280 268 271 263 235 237 260 280 264 211 156 133 144 145 143 141 139 137
133 124 139 159 170 173 170 185 192 175 164 134 107 96 123 125 131 146 159 175 155 122 116 147 185 150 159 149 137 167 179 174 187 189 173 172 169 51 117 166 168 163 157 175 175 171 176 142 127 117 31 356 348 353 338 321 256 196 222 186 157 134 103 100 120 103 128 200 161 144 231 255 279 314 333 305 289 281 233 181 158 151 152 153 151 147 145 145
133 131 115 146 171 181 184 193 183 169 146 129 122 140 127 64 87 155 147 149 152 139 136 150 137 113 122 123 104 134 155 132 174 173 139 128 155 29 50 171 182 174 148 163 161 162 171 180 151 148 164 189 199 213 222 216 186 200 203 182 177 150 141 149 118 112 225 222 159 169 228 252 298 320 327 323 314 275 196 176 172 168 162 160 158 155 155 156
148 157 131 125 168 190 227 136 156 160 164 152 141 166 152 114 141 150 127 131 158 129 104 112 130 101 91 130 123 149 175 61 60 153 137 136 211 341 28 136 176 173 88 127 155 152 137 245 186 183 197 197 190 198 174 125 143 188 183 170 176 171 164 145 108 165 201 162 166 221 231 235 264 276 274 276 267 241 214 198 191 181 171 168 168 169 169 169
157 199 169 132 138 192 304 172 153 151 167 167 165 173 158 139 130 139 109 142 175 152 83 51 141 130 155 161 140 160 176 95 61 122 117 130 190 330 30 87 139 164 111 134 158 144 99 214 202 203 218 204 163 179 171 140 164 182 165 163 172 174 168 157 186 210 165 118 230 236 214 230 241 222 234 246 235 241 241 218 200 184 176 177 182 190 191 192
152 163 170 155 143 179 235 186 172 150 151 167 167 154 156 154 155 168 161 48 168 172 111 72 200 188 171 165 147 143 151 114 99 131 102 138 149 64 39 50 72 164 126 133 162 134 124 203 204 196 214 205 121 157 176 157 165 169 164 172 174 172 177 185 210 217 163 166 240 223 165 221 235 199 212 227 210 216 224 216 204 188 185 193 205 215 220 219
132 116 155 157 143 169 146 146 158 164 162 166 156 160 171 170 166 165 131 101 161 214 156 146 200 201 172 162 137 142 165 162 160 179 165 157 148 107 101 95 64 180 124 113 156 134 144 199 188 171 206 224 159 161 167 154 150 157 177 183 177 178 189 197 212 220 197 205 245 227 175 235 239 186 209 228 221 224 223 214 209 198 196 210 227 237 241 232
146 133 146 140 110 138 149 144 151 166 191 187 166 174 179 176 171 166 146 146 161 197 176 155 175 175 160 150 124 135 181 169 154 177 171 155 165 172 170 174 165 137 115 115 127 158 177 196 105 121 191 259 239 156 138 140 153 173 191 194 188 189 200 207 215 219 203 221 252 252 243 263 244 167 207 230 227 231 236 232 230 222 220 231 243 249 249 241
142 134 140 139 112 144 160 153 154 161 182 199 184 173 178 183 174 149 131 176 164 168 172 158 158 151 126 136 141 150 168 153 151 168 164 156 168 172 185 179 156 140 140 146 129 131 161 166 61 98 163 263 295 138 127 85 76 91 235 209 199 198 206 213 216 206 185 208 238 244 253 264 224 163 205 227 216 220 234 237 239 240 240 244 248 249 247 245
128 118 136 144 128 164 169 159 162 168 179 186 185 174 170 177 163 141 142 207 170 168 172 161 150 139 144 179 186 158 134 109 113 138 132 110 118 117 102 137 146 144 151 147 112 110 143 142 115 131 171 263 326 122 129 90 74 262 248 213 200 202 203 203 224 227 206 200 210 217 234 247 208 161 201 218 196 211 226 232 238 242 244 245 246 246 247 250